Вернуться в каталог

STARLINK-3661

АктивенСвязьVLEO
NORAD 52129·PAYLOAD·🇺🇸 United States

Запущен Mar 19, 2022 с Cape Canaveral Space Force Station

Loading…

Ближайшие Пролёты (ближайшие 24 часа)

TLE

СвежийSource: CelesTrak SupGP

Эпоха: Sep 14, 2026, 21:18 UTC

1 52129C 22029AT  26257.88798611  .00008893  00000+0  48914-3 0  2577
2 52129  53.1605 297.9038 0001595  71.4533   3.9528 15.13561555    17

Отслеживайте STARLINK-3661 в реальном времени с AllMySat

Download on the App Store